Weather History for Buffalo, WY

Change the Weather History Date:

Tuesday, September 24, 2013

  Actual Average Record
Temperature  
Mean Temperature 61 °F 54 °F  
Max Temperature 78 °F 67 °F 87 °F (1992)
Min Temperature 44 °F 41 °F 27 °F (2000)
Degree Days  
Heating Degree Days 4 12  
Month to date heating degree days 47 171  
Since 1 July heating degree days 48 236  
Cooling Degree Days 0 0  
Month to date cooling degree days 95 44  
Year to date cooling degree days 709 490  
Growing Degree Days 10 (Base 50)    
Moisture  
Dew Point 30 °F    
Average Humidity 37    
Maximum Humidity 58    
Minimum Humidity 16    
Precipitation  
Precipitation 0.00 in 0.05 in 0.16 in (2005)
Month to date precipitation 2.03 0.97  
Year to date precipitation 6.45 11.24  
Sea Level Pressure  
Sea Level Pressure 29.79 in    
Wind  
Wind Speed 9 mph (SSW)    
Max Wind Speed 28 mph    
Max Gust Speed 35 mph    
Visibility 10 miles    
Events      
T = Trace of Precipitation, MM = Missing Value Source: NWS Daily Summary

Daily Weather History Graph

Daily Weather History Graph

Search for Another Location

Airport:

Trip Planner

Search our weather history database for the weather conditions in past years. The results will help you decide how hot, cold, wet, or windy it might be!

Date:

Astronomy

Sep. 24, 2013 Rise Set
Actual Time 6:56 AM MDT 7:00 PM MDT
Civil Twilight 6:27 AM MDT 7:28 PM MDT
Nautical Twilight 5:53 AM MDT 8:02 PM MDT
Astronomical Twilight 5:19 AM MDT 8:37 PM MDT
Moon 10:08 PM MDT (9/24) 12:25 PM MDT (9/24)
Length of Visible Light 13h 01m
Length of Day
12h 03m
Waning Gibbous, 72% of the Moon is Illuminated
Sep 24
Waning Gibbous
Sep 26
Last Quarter
Oct 4
New
Oct 11
First Quarter
Oct 18
Full

Hourly Weather History & Observations

Time (MDT) Temp. Windchill Dew Point Humidity Pressure Visibility Wind Dir Wind Speed Gust Speed Precip Events Conditions
12:53 AM 52.0 °F - 28.9 °F 41% 29.90 in 10.0 mi SW 4.6 mph - N/A   Clear
1:53 AM 50.0 °F - 28.9 °F 44% 29.92 in 10.0 mi Calm Calm - N/A   Clear
2:53 AM 46.0 °F 43.1 °F 30.0 °F 54% 29.93 in 10.0 mi West 5.8 mph - N/A   Clear
3:53 AM 46.0 °F 43.9 °F 30.0 °F 54% 29.93 in 10.0 mi West 4.6 mph - N/A   Clear
4:53 AM 45.0 °F 42.6 °F 30.0 °F 56% 29.93 in 10.0 mi WSW 4.6 mph - N/A   Clear
5:53 AM 46.0 °F 41.4 °F 30.0 °F 54% 29.93 in 10.0 mi West 9.2 mph - N/A   Clear
6:53 AM 46.9 °F - 28.9 °F 50% 29.94 in 10.0 mi SW 5.8 mph - N/A   Clear
7:53 AM 51.1 °F - 30.9 °F 46% 29.96 in 10.0 mi WSW 5.8 mph - N/A   Clear
8:53 AM 55.9 °F - 36.0 °F 47% 29.94 in 10.0 mi Calm Calm - N/A   Clear
9:53 AM 59.0 °F - 35.1 °F 41% 29.94 in 10.0 mi ESE 3.5 mph - N/A   Clear
10:53 AM 63.0 °F - 33.1 °F 33% 29.91 in 10.0 mi SE 4.6 mph - N/A   Clear
11:53 AM 66.9 °F - 32.0 °F 27% 29.87 in 10.0 mi SSE 10.4 mph - N/A   Clear
12:53 PM 69.1 °F - 28.9 °F 22% 29.81 in 10.0 mi South 12.7 mph - N/A   Clear
1:53 PM 73.0 °F - 27.0 °F 18% 29.75 in 10.0 mi South 17.3 mph 23.0 mph N/A   Clear
2:53 PM 73.9 °F - 26.1 °F 17% 29.71 in 10.0 mi SE 12.7 mph 23.0 mph N/A   Clear
3:53 PM 75.9 °F - 27.0 °F 16% 29.68 in 10.0 mi South 18.4 mph 24.2 mph N/A   Clear
4:53 PM 75.9 °F - 26.1 °F 16% 29.64 in 10.0 mi SSW 21.9 mph 28.8 mph N/A   Clear
5:53 PM 73.9 °F - 27.0 °F 18% 29.62 in 10.0 mi South 15.0 mph 23.0 mph N/A   Clear
6:53 PM 68.0 °F - 28.9 °F 23% 29.62 in 10.0 mi SSE 13.8 mph 25.3 mph N/A   Clear
7:53 PM 64.9 °F - 30.0 °F 27% 29.62 in 10.0 mi South 8.1 mph - N/A   Clear
8:53 PM 64.0 °F - 30.9 °F 29% 29.61 in 10.0 mi South 13.8 mph - N/A   Clear
9:53 PM 64.0 °F - 28.9 °F 27% 29.60 in 10.0 mi South 11.5 mph - N/A   Clear
10:53 PM 62.1 °F - 27.0 °F 26% 29.59 in 10.0 mi SW 5.8 mph - N/A   Clear
11:53 PM 59.0 °F - 28.0 °F 31% 29.60 in 10.0 mi WNW 8.1 mph - N/A   Clear